Location: Gacki
(50.4667°N, 20.5500°E)
Time: 19:32:28
(UTC+00:00)

Daily predictions for brighter satellites

Satellite Brightness Start Highest point End
(mag) Time Altitude Azimuth Time Altitude Azimuth Time Altitude Azimuth
Cosmos 1140 Rocket 3.8 15:14:19 10° S 15:19:18 50° ESE 15:24:16 10° NNE
Cosmos 1340 Rocket 3.9 15:17:17 10° SSW 15:20:59 44° WNW 15:24:41 10° N
RESURS DK-1 2.6 15:18:19 10° NNW 15:22:11 43° NE 15:26:00 10° SE
Cosmos 2100 Rocket 4.4 15:18:42 10° SSW 15:24:50 68° WNW 15:30:59 10° N
UNK 4.2 15:23:24 10° NNE 15:27:46 40° E 15:32:05 10° SSE
Meteor 1-28 Rocket 2.9 15:29:12 10° NNE 15:32:35 66° ESE 15:35:56 10° S
SJ-12 4.2 15:32:37 10° SE 15:36:09 38° ENE 15:39:41 10° N
Cosmos 1269 Rocket 4.0 15:33:09 10° SSW 15:38:25 79° ESE 15:43:42 10° NNE
CORIOLIS 4.1 15:34:15 10° SSE 15:39:34 71° ENE 15:44:54 10° NNW
IRS-1C 4.2 15:36:09 10° SE 15:41:21 59° ENE 15:46:35 10° N
BREEZE-M DEB (TANK) 3.4 15:44:47 10° SSW 15:46:56 33° SE 15:50:40 12° ENE
Cosmos 1943 Rocket 2.6 15:42:51 10° S 15:48:05 41° ESE 15:53:18 10° NE
Cosmos 2233 Rocket 4.0 15:41:53 10° S 15:48:11 82° E 15:54:33 10° N
Thor Agena Rocket 3.8 15:43:58 10° SSE 15:49:14 79° WSW 15:54:33 10° NNW
ATLAS 2AS CENTAUR R/B 3.5 15:43:34 10° NW 15:49:36 32° NNE 15:54:48 13° ENE
Cosmos 1725 Rocket 4.4 15:44:10 10° SSW 15:50:26 71° WNW 15:56:46 10° N
COSMO-SKYMED 1 4.1 15:50:28 13° ENE 15:51:11 14° E 15:53:19 10° ESE
ATLAS CENTAUR R/B 3.0 15:49:15 10° W 15:51:50 19° NNW 15:54:23 10° NNE
Resurs 01 Rocket 3.6 15:52:46 11° NE 15:52:46 11° NE 15:53:40 10° NE
Cosmos 841 Rocket 4.4 15:47:45 10° N 15:52:18 28° NE 15:56:50 10° ESE
Cosmos 2251 Rocket 4.3 15:48:56 10° SSE 15:53:29 30° E 15:58:05 10° NE
Cosmos 1782 Rocket 3.7 15:49:26 10° SSW 15:53:52 83° W 15:58:19 10° N
Cosmos 2061 Rocket 4.0 15:49:14 10° S 15:55:31 83° E 16:01:47 10° N
Cosmos 2082 Rocket 2.3 15:50:11 10° NNW 15:55:42 53° NE 16:01:11 10° SE
Cosmos 1300 Rocket 3.8 15:52:04 10° SSW 15:56:26 71° WNW 16:00:49 10° N
Cosmos 2058 3.3 15:54:11 10° N 15:57:54 36° ENE 16:01:34 10° SE
Cosmos 2278 Rocket 2.4 15:55:46 10° S 16:01:11 49° ESE 16:06:38 10° NE
Cosmos 1346 Rocket 4.4 16:02:51 10° NNE 16:04:11 15° NE 16:04:11 15° NE
Cosmos 1464 Rocket 4.5 15:59:56 10° SSE 16:05:36 37° E 16:11:14 10° NNE
Cosmos 468 Rocket 4.0 16:01:43 10° NNW 16:06:54 61° ENE 16:12:00 10° SE
MOS 1 Rocket 3.3 16:02:54 10° SE 16:07:06 52° ENE 16:11:33 10° N
USA 215 3.6 16:02:46 10° SE 16:09:16 68° SW 16:15:49 10° WNW
SAR-Lupe-1 4.1 16:06:41 10° SSE 16:10:14 82° WSW 16:13:51 10° NNW
Cosmos 1975 Rocket 3.5 16:05:55 10° NNW 16:10:14 64° W 16:14:34 10° S
ARIANE 5 R/B 2.5 16:05:55 10° SSE 16:10:53 83° WSW 16:15:56 10° NNW
AQUARIUS 4.0 16:07:33 10° SSE 16:11:56 75° ENE 16:16:22 10° N
Cosmos 1602 3.2 16:09:29 10° N 16:12:29 48° ENE 16:15:27 10° SSE
ATLAS 5 CENTAUR R/B 4.0 16:10:03 10° WNW 16:13:54 28° WSW 16:18:28 10° S
CZ-2D R/B 3.8 16:12:04 10° SE 16:16:00 43° ENE 16:20:01 10° N
NOSS 3 (A) 3.7 16:14:25 10° SW 16:15:42 48° SW 16:15:42 48° SW
Cosmos 2344 3.9 16:12:10 10° NW 16:19:37 55° NE 16:28:28 12° ESE
SAR-Lupe-4 4.4 16:16:33 10° S 16:20:03 54° WSW 16:23:35 10° NNW
Cosmos 1190 Rocket 4.4 16:16:24 10° S 16:21:22 43° ESE 16:25:14 16° NE
Cosmos 1862 3.3 16:18:01 10° N 16:21:31 44° ENE 16:25:00 10° SSE
PSLV R/B 3.9 16:17:52 10° SE 16:21:32 35° ENE 16:25:13 10° N
Cosmos 2151 Rocket 4.0 16:19:17 10° SSE 16:23:29 41° E 16:27:43 10° NNE
Geosat FO 3.8 16:24:49 15° SE 16:27:05 74° ENE 16:29:58 10° NNW
USA 281 4.0 16:24:36 21° E 16:27:32 29° NE 16:33:01 10° NNW
CZ-2D R/B 3.9 16:26:19 10° S 16:29:22 46° W 16:32:26 10° NNW
ISS -3.7 16:26:37 10° WSW 16:29:57 67° SSE 16:30:57 40° E
SKYMED 2 3.8 16:26:37 13° NNE 16:30:14 45° E 16:34:24 10° S
Okean 1 Rocket 3.7 16:26:33 10° SSE 16:30:25 32° E 16:31:18 29° ENE
COSMOS 2406 3.3 16:25:35 10° NNW 16:31:12 56° NE 16:36:46 10° SE
Cosmos 407 Rocket 3.5 16:26:34 10° SSW 16:31:45 82° WNW 16:36:55 10° NNE
Cosmos 1812 1.8 16:30:15 10° S 16:33:09 87° E 16:34:33 27° NNE
Cosmos 1954 Rocket 4.3 16:28:51 10° S 16:33:49 44° ESE 16:36:42 23° NE
IRS-P3 4.3 16:29:03 10° S 16:34:23 75° WSW 16:39:44 10° NNW
Sich 1 Rocket 4.1 16:31:41 10° SSE 16:35:51 37° E 16:37:30 27° NE
Cosmos 2026 Rocket 4.3 16:30:23 10° N 16:36:05 40° ENE 16:41:48 10° SE
SL-19 R/B 4.1 16:31:16 10° SE 16:36:21 56° ENE 16:41:29 10° N
Cosmos 1072 Rocket 4.4 16:33:05 10° S 16:39:09 67° E 16:45:13 10° NNE
BlueWalker 3 4.3 16:41:38 10° SSE 16:41:51 11° SSE 16:41:51 11° SSE
Cosmos 44 Rocket 3.2 16:40:16 10° SW 16:45:03 86° SE 16:47:37 29° NE
SPOT 1/Viking Rocket 3.5 16:41:04 10° SSE 16:46:15 86° ENE 16:51:29 10° NNW
SJ 16-02 1.3 16:42:28 10° S 16:46:41 55° ESE 16:47:54 40° NE
YAOGAN 1 2.4 16:43:53 10° SSE 16:48:06 67° ENE 16:52:21 10° N
Cosmos 1869 4.3 16:44:58 10° SSW 16:48:17 40° WNW 16:51:38 10° N
Cosmos 2297 Rocket 4.3 16:49:35 10° N 16:50:46 11° NNE 16:51:22 10° NNE
SL-16 R/B 4.1 16:45:45 10° N 16:51:17 34° WNW 16:56:47 10° WSW
Meteor 2-3 Rocket 3.7 16:48:44 10° N 16:54:22 57° ENE 16:59:54 10° SSE
Spot 4 Rocket 3.9 16:52:06 10° SSE 16:57:12 90° W 17:02:20 10° NNW
Nadezhda 4 Rocket 4.0 16:52:16 10° N 16:58:37 88° WSW 17:04:50 10° S
Aureole 3 Rocket 3.5 16:58:22 10° SSW 17:01:16 42° WNW 17:03:44 15° N
Resurs 1-3 3.4 16:58:08 10° SSE 17:02:26 86° E 17:06:46 10° NNW
CZ-4C R/B 3.8 16:59:55 10° WNW 17:04:17 25° N 17:06:53 19° NNE
Cosmos 1627 Rocket 4.4 17:02:43 10° N 17:08:50 64° ENE 17:14:57 10° SSE
Cosmos 304 Rocket 3.6 17:04:59 10° SSW 17:09:42 71° ESE 17:10:27 58° NE
Cosmos 1400 Rocket 2.7 17:06:54 10° SSW 17:10:41 78° WNW 17:11:08 66° NNW
Cosmos 371 Rocket 3.1 17:06:34 10° SSW 17:11:21 71° ESE 17:12:04 59° ENE
Cosmos 1536 Rocket 4.2 17:07:46 10° NNW 17:12:07 55° W 17:16:25 10° S
Cosmos 2195 Rocket 4.4 17:06:10 10° N 17:12:31 81° E 17:18:52 10° SSE
Helios 1A Rocket 4.0 17:16:48 28° SSW 17:16:48 28° SSW 17:18:30 10° SSW
Okean 2 Rocket 3.1 17:13:36 10° SSW 17:17:59 75° W 17:20:02 31° N
NOAA 6 4.0 17:20:17 10° SSE 17:25:26 79° WSW 17:30:36 10° NNW
Geosat 3.9 17:25:22 58° SSE 17:26:24 89° ENE 17:31:27 10° NNW
COSMO-SKYMED 1 2.6 17:26:49 69° NW 17:27:00 71° WNW 17:31:05 10° SSW
Resurs 01 Rocket 3.1 17:30:11 27° N 17:30:11 27° N 17:32:16 10° N
Cosmos 1943 Rocket 3.3 17:26:33 10° WSW 17:31:50 41° NW 17:35:17 20° N
Cosmos 841 Rocket 4.1 17:29:17 10° NNW 17:34:25 55° WSW 17:38:54 13° S
Cosmos 2251 Rocket 4.4 17:30:23 10° SW 17:35:29 48° WNW 17:38:36 22° N
Cosmos 2082 Rocket 3.9 17:34:40 10° NW 17:39:30 31° WSW 17:44:20 10° SSW
BREEZE-M DEB (TANK) 3.0 17:36:31 10° W 17:39:44 81° S 17:39:49 80° SSE
ATLAS 2AS CENTAUR R/B 2.5 17:34:46 10° NW 17:41:34 72° NE 17:42:15 67° E
Cosmos 2278 Rocket 3.5 17:40:14 10° WSW 17:45:26 36° NW 17:48:33 21° N
Cosmos 1634 Rocket 4.0 17:44:49 10° S 17:57:50 - NNE 17:50:01 63° SSE
Cosmos 2369 Rocket 4.1 17:48:50 10° S 17:50:09 17° S 17:50:09 17° S
ISS -0.4 18:03:24 10° W 18:03:52 13° W 18:03:52 13° W
Cosmos 1656 Rocket 4.2 18:03:33 10° SW 18:07:59 55° WSW 18:07:59 55° WSW
USA 281 3.1 18:11:29 84° WSW 18:11:29 84° WSW 18:18:04 10° NNW
SJ 16-02 3.7 18:21:47 10° WSW 18:24:28 21° WNW 18:24:28 21° WNW
Cosmos 2344 4.5 18:26:26 10° NW 18:34:15 55° WSW 18:38:34 34° S
CZ-4C R/B 4.2 18:49:05 10° NW 18:51:49 23° NNW 18:51:49 23° NNW
ATLAS 2AS CENTAUR R/B 4.4 19:26:10 10° NW 19:29:41 26° W 19:29:41 26° W
